Theta_e
332 330 336 337 331 329 333 334 331 339 350 351 346 345 345 342 338 336 335 336 337 338 335 332 331 333 331 331 330 333 331 331 330 327 327 325 322 320 320 319 316 316 315 315
341 339 338 341 338 338 338 344 347 346 347 344 344 340 339 338 336 335 335 334 335 335 331 330 330 330 329 329 330 328 327 325 325 325 324 318 317 317 316 316 316 315 312 310
340 340 336 339 344 343 343 341 347 351 346 343 340 338 337 334 332 332 332 332 334 333 329 328 329 328 329 329 327 325 324 324 323 323 321 318 316 316 316 315 313 309 307 306
341 332 335 341 338 340 342 341 341 343 344 342 338 332 330 330 329 329 329 331 333 329 327 326 326 326 325 325 325 323 323 322 322 322 321 317 317 316 314 313 309 307 307 306
337 332 338 342 340 342 343 343 340 342 340 337 334 333 332 328 327 329 330 330 331 328 324 324 323 322 322 322 322 322 322 322 321 321 320 318 318 315 312 309 307 307 306 306
337 334 336 340 336 333 334 344 337 338 338 336 334 335 334 327 327 327 329 329 330 326 324 322 322 322 320 321 321 321 321 320 320 319 320 319 317 315 309 307 307 306 305 305
331 333 333 335 333 332 339 336 336 332 331 330 333 331 326 325 325 327 328 328 326 324 322 322 322 322 321 321 320 319 318 318 318 318 318 318 317 313 308 307 307 305 305 305
332 334 333 333 333 336 336 334 333 330 328 329 327 325 325 324 325 325 326 325 323 322 322 322 322 322 321 320 319 317 316 317 316 316 315 315 314 310 307 307 306 305 305 304
335 335 330 332 331 329 331 332 329 328 327 326 326 324 323 324 325 324 324 323 322 323 322 319 318 320 319 319 316 318 318 317 314 314 313 314 312 308 307 308 307 305 304 304
336 331 331 330 328 328 329 328 326 325 325 323 324 323 323 324 324 323 323 323 322 322 322 321 317 318 319 319 319 318 316 314 313 313 312 312 311 310 309 309 309 305 305 305
330 328 330 329 329 326 324 323 323 322 322 323 323 324 323 323 323 322 323 323 323 322 321 321 320 320 319 318 317 317 316 314 311 311 310 310 310 311 310 309 308 308 307 306
337 331 330 332 326 323 322 322 322 322 323 322 322 323 322 323 322 322 322 321 321 320 320 318 317 319 318 316 316 318 317 314 311 308 307 309 310 309 309 309 309 305 305 307
331 326 324 328 323 322 323 322 322 322 322 323 323 322 322 321 321 321 321 320 318 317 316 318 317 317 315 314 314 317 315 313 310 307 307 308 309 309 308 304 303 302 302 301
323 325 326 324 324 323 323 322 323 324 323 323 322 322 321 321 321 322 320 319 317 316 315 316 315 313 312 312 312 313 314 312 309 308 307 308 307 305 305 308 309 308 305 305
323 323 324 323 322 323 323 324 324 325 324 324 324 323 323 323 323 322 319 317 316 316 316 314 313 312 311 311 312 313 313 313 313 313 312 311 308 309 310 309 307 306 306 304
323 323 323 324 325 324 324 323 322 324 324 323 323 323 322 322 321 319 318 315 315 315 314 313 312 311 310 310 309 310 309 309 310 309 309 310 309 307 307 306 305 305 304 303
326 326 326 326 325 324 323 322 321 322 323 322 322 321 320 320 319 318 316 315 315 315 314 311 312 311 311 309 309 308 309 310 310 311 310 309 307 306 305 305 304 304 302 298
325 325 325 325 323 323 323 322 321 321 322 321 321 319 319 317 317 316 315 314 313 312 311 310 309 308 309 310 310 310 312 311 310 309 308 306 305 304 303 303 302 301 300 298
324 325 324 323 323 322 322 321 321 321 320 320 319 319 318 317 316 315 313 313 312 311 310 309 309 310 307 308 311 310 309 308 308 307 306 304 304 303 302 301 299 299 299 298
324 323 323 323 323 322 321 321 321 320 320 320 320 318 317 316 315 313 313 312 311 309 309 307 307 308 307 307 310 309 308 307 306 306 305 304 303 302 300 298 298 298 298 298
323 322 321 321 321 321 320 319 320 318 318 318 318 318 317 315 314 313 312 310 307 308 307 305 307 308 308 308 310 308 308 307 307 306 305 305 303 302 300 299 298 298 297 298
320 320 320 319 319 318 318 317 317 316 316 316 317 316 315 314 314 312 311 310 308 307 307 305 307 307 309 309 311 309 308 308 307 307 306 305 304 302 301 300 299 298 298 297
319 319 318 318 317 316 315 315 315 315 315 314 314 313 313 313 313 311 310 308 307 307 306 304 305 304 304 307 309 309 308 308 308 307 306 305 304 303 302 301 300 299 299 298
317 317 317 316 315 315 315 314 314 314 313 313 313 313 313 312 310 309 309 308 307 305 304 303 303 302 302 304 305 306 307 307 307 306 305 304 303 303 302 301 300 300 299 298
316 314 315 315 316 316 315 313 312 311 311 311 311 312 313 312 310 311 310 308 306 304 304 301 302 303 302 303 303 304 304 304 304 303 303 303 302 302 302 301 300 300 299 298
313 314 315 316 315 314 313 311 311 311 311 311 311 312 311 310 308 309 308 307 306 304 304 302 302 302 303 303 303 303 303 303 302 302 302 302 302 301 301 301 300 299 299 298
315 314 314 313 313 312 312 312 312 311 311 311 311 312 311 310 309 308 307 305 305 304 304 302 302 303 303 303 303 303 302 302 302 302 302 302 302 301 301 300 300 300 299 298
Wind_Speed
3 5 5 5 5 6 4 6 6 9 13 14 12 7 8 7 6 6 6 6 7 6 6 8 7 7 8 9 9 11 12 13 16 20 20 23 22 19 19 23 23 20 23 24
4 7 9 9 8 8 9 8 9 13 11 8 8 10 7 6 5 4 5 4 5 5 6 6 5 4 6 8 9 10 15 14 15 17 18 19 21 21 22 23 18 21 20 19
5 8 7 7 3 3 5 3 13 8 7 11 9 7 6 3 3 6 8 7 6 5 5 5 5 6 7 8 11 18 17 12 13 15 17 17 18 22 22 21 20 20 19 19
6 4 8 3 3 2 8 6 6 11 16 13 10 7 5 3 3 5 6 8 5 6 6 6 6 11 10 11 12 14 14 15 13 14 16 16 17 18 16 16 17 17 17 16
7 4 2 3 5 7 4 5 6 12 13 11 12 7 4 4 3 4 6 6 1 7 9 10 8 8 10 10 14 13 12 11 11 13 15 14 14 13 13 16 15 15 15 14
5 6 6 3 8 5 3 3 12 11 13 14 11 5 4 3 3 4 6 8 7 9 7 7 5 6 13 10 15 15 12 14 14 14 12 12 13 12 13 13 13 13 14 14
5 3 1 4 9 5 5 2 16 13 11 11 7 3 6 4 5 5 9 9 12 11 11 10 10 12 14 15 17 17 17 17 14 10 10 9 11 11 12 12 12 13 13 12
3 3 4 12 7 6 4 12 13 11 8 9 11 9 8 7 6 9 11 12 13 17 15 12 14 19 19 20 23 20 14 10 8 7 7 8 11 11 11 11 11 9 10 8
1 3 4 9 3 4 7 14 10 12 11 13 11 8 8 7 9 13 13 14 12 14 14 17 21 20 22 19 17 15 11 9 7 7 7 7 10 10 8 8 7 7 6 5
6 3 5 6 7 7 11 12 12 13 13 11 12 11 9 8 10 13 13 13 13 14 13 11 11 14 15 13 13 11 10 11 9 9 10 7 7 7 7 6 5 5 4 3
5 5 8 7 8 13 14 14 15 14 12 12 13 11 12 11 12 10 10 10 11 12 11 9 6 7 5 3 5 7 7 8 9 8 7 7 7 7 4 4 3 3 2 2
4 14 3 15 14 16 17 16 15 14 12 12 13 12 14 12 11 10 11 11 11 10 9 6 5 5 3 2 3 6 6 9 11 9 9 8 8 7 5 4 3 1 1 2
4 16 5 19 18 17 17 16 13 13 14 12 12 13 13 12 11 11 12 11 9 9 8 4 3 3 3 2 1 5 8 12 12 9 8 8 6 5 5 4 4 3 2 1
19 21 17 19 13 15 15 15 15 13 13 12 14 13 13 13 11 10 10 10 7 7 7 5 5 5 5 7 7 8 11 12 10 7 6 6 4 4 3 2 2 2 5 5
16 5 17 18 18 15 18 17 14 12 13 12 12 14 14 13 12 11 11 10 8 7 6 4 6 8 7 8 10 11 9 8 7 6 4 4 4 5 4 6 5 5 3 6
10 17 21 22 19 17 18 15 14 12 12 13 13 13 13 13 12 13 11 10 8 7 6 6 9 7 8 7 7 9 9 8 5 6 6 6 6 6 5 5 5 6 7 7
20 19 20 19 20 20 19 14 14 13 14 14 14 14 14 14 12 11 10 7 8 8 6 6 6 5 4 4 3 6 6 7 8 6 6 6 6 6 5 6 6 7 7 7
12 20 19 21 21 18 16 16 15 16 15 15 16 16 15 14 12 11 7 7 7 8 8 5 5 5 4 5 6 7 6 7 7 7 7 6 6 6 6 6 6 5 5 6
19 20 22 23 23 20 18 17 17 16 15 17 16 15 14 12 12 10 9 8 8 7 7 5 5 3 2 4 6 7 8 8 8 8 7 7 6 6 6 6 5 5 5 5
18 23 24 22 20 20 17 16 15 15 14 15 14 14 13 12 11 12 10 9 6 5 5 3 4 5 5 6 11 9 8 9 8 8 6 5 5 5 5 5 5 5 5 5
18 21 20 20 17 15 16 17 17 15 13 14 15 15 15 13 13 11 11 8 8 8 4 0 2 2 2 10 13 8 7 8 7 6 5 3 4 3 4 4 4 5 5 5
18 17 18 17 16 15 15 16 15 14 13 12 11 14 14 13 11 8 7 7 8 7 5 2 4 6 4 9 7 8 7 7 6 5 5 4 3 2 2 2 2 2 2 3
18 19 19 19 19 18 16 15 14 14 14 13 14 14 15 14 13 11 8 8 7 8 6 5 6 4 3 3 5 7 7 6 6 5 5 5 4 3 3 2 2 1 1 1
19 19 19 20 21 19 15 13 13 12 12 11 12 14 14 11 8 6 7 8 8 9 6 7 9 6 4 4 4 5 4 4 5 5 5 5 4 4 5 3 3 3 2 2
21 22 23 21 18 15 16 16 13 11 12 12 12 12 11 9 9 10 8 6 9 9 7 8 10 9 6 4 4 4 5 5 5 5 5 5 4 4 4 4 3 3 2 1
23 19 19 19 16 17 17 17 15 14 14 13 12 11 10 9 8 7 8 7 10 10 9 8 7 8 8 7 6 6 6 6 6 5 5 5 5 4 4 4 4 4 3 2
19 21 17 14 14 15 17 17 15 16 15 15 15 12 11 9 8 6 7 7 9 10 10 9 8 6 7 8 6 5 6 7 8 6 6 6 6 6 6 6 5 5 4 3
Wind_Direction
44 125 110 104 140 155 153 146 197 166 167 164 167 142 96 93 84 63 45 27 13 18 62 18 25 39 51 63 70 74 77 78 87 95 95 104 102 95 99 99 96 90 88 83
72 107 131 104 92 117 119 117 86 132 135 135 123 115 99 84 76 58 41 37 22 40 77 46 27 50 69 70 77 96 98 94 97 99 99 98 103 101 97 97 85 83 78 77
142 139 151 125 51 73 103 98 146 162 151 147 132 128 107 114 71 43 22 23 31 65 61 67 79 72 60 82 101 109 97 97 99 104 106 105 106 104 100 92 89 82 79 76
140 181 192 72 342 212 114 117 126 122 147 158 141 128 136 71 54 36 23 358 54 88 75 60 92 104 109 112 108 102 94 96 97 99 99 102 101 96 91 92 91 91 84 78
149 164 83 204 183 165 199 149 150 137 143 145 143 148 140 58 47 16 7 344 8 111 118 115 94 98 103 107 115 112 103 95 86 99 104 109 105 103 99 101 99 95 89 85
152 173 192 104 158 167 204 171 170 156 156 157 165 215 120 50 38 21 13 352 128 120 114 101 92 119 111 92 89 83 94 102 112 113 105 106 112 114 115 109 103 98 94 92
134 120 138 144 145 152 191 109 156 161 158 163 176 60 106 90 66 61 61 78 107 109 96 97 114 121 108 104 85 98 97 101 102 98 101 109 115 120 125 117 110 101 96 88
122 116 184 156 131 196 99 128 137 139 142 132 123 117 92 79 80 88 88 89 98 103 95 99 111 102 92 91 103 102 106 106 80 78 94 109 123 128 129 123 109 105 101 91
336 106 109 151 75 107 139 138 135 131 133 133 127 117 109 114 106 99 92 91 88 97 96 98 98 102 99 107 117 127 129 145 124 110 110 116 129 134 133 127 124 117 107 98
166 90 136 150 118 126 142 130 131 130 131 135 130 128 126 115 108 104 101 98 98 98 102 113 110 119 130 139 146 153 141 141 138 130 134 137 135 140 158 155 149 150 148 119
95 124 124 148 144 138 128 126 127 130 137 132 138 134 132 129 125 112 109 111 116 110 114 127 138 134 108 114 164 142 147 155 155 145 142 137 146 135 154 149 171 177 197 175
178 169 133 163 152 146 139 140 140 139 143 149 146 145 138 133 127 125 120 118 116 121 118 112 97 72 56 340 256 231 173 162 164 157 133 126 127 131 130 152 167 131 210 201
149 145 134 137 144 149 144 146 149 155 161 155 155 152 155 147 145 139 137 132 128 121 113 107 104 78 47 9 141 183 166 168 171 156 134 128 124 136 143 113 99 86 69 28
128 118 112 146 154 151 144 147 150 148 152 159 159 158 151 146 152 148 140 134 130 119 100 90 90 77 64 67 113 118 149 163 160 141 141 125 130 129 123 155 157 115 46 59
147 72 146 140 142 142 140 143 140 137 140 139 150 154 160 159 154 145 138 134 126 114 109 106 104 82 98 103 100 105 115 130 141 131 120 140 130 114 111 96 86 75 83 53
131 130 139 143 147 149 152 155 147 146 148 145 145 147 148 144 140 142 142 143 133 128 126 114 106 99 103 112 107 103 103 117 134 137 117 114 107 101 88 75 69 62 55 37
131 143 148 153 155 156 160 164 161 158 158 161 155 151 142 138 140 146 153 154 142 136 134 127 114 114 114 129 126 125 114 111 111 110 112 110 102 82 66 60 64 61 55 37
159 158 155 153 155 159 162 166 164 164 167 159 154 153 148 154 155 155 158 153 144 130 131 134 136 109 105 132 133 121 115 121 113 108 107 98 85 70 63 62 56 46 38 28
146 150 155 157 159 163 166 169 171 168 159 160 162 163 161 161 157 153 160 159 155 147 145 164 163 210 196 181 146 134 126 121 116 109 103 97 83 75 70 65 57 54 62 56
147 149 154 156 162 167 165 167 164 162 163 168 164 156 158 161 161 164 161 157 162 159 164 206 228 232 254 221 171 156 138 120 123 121 117 103 97 90 83 77 72 73 70 51
146 151 153 157 161 164 162 159 158 158 163 170 168 167 168 165 165 173 152 164 176 167 187 306 171 171 150 166 166 172 159 143 139 144 148 131 121 114 93 93 81 73 68 61
147 150 152 151 150 147 151 152 154 150 151 154 159 158 154 160 171 185 174 170 178 184 188 155 136 118 132 170 184 186 179 172 171 170 172 175 165 157 140 127 112 90 65 51
152 152 151 153 150 145 144 147 149 150 151 154 155 158 162 167 171 166 167 179 175 186 187 176 162 143 144 161 176 182 191 195 191 189 187 195 206 198 193 206 196 216 257 322
144 149 146 143 141 141 141 149 149 152 153 158 163 163 161 159 173 164 149 169 179 184 184 186 179 171 149 152 162 167 171 173 174 186 194 193 206 212 204 214 223 238 244 260
148 143 144 146 148 152 149 148 145 147 151 155 160 167 168 173 185 185 185 190 189 188 194 194 193 197 190 181 170 173 176 171 171 174 176 186 194 206 199 206 226 239 234 233
141 145 152 156 156 155 155 158 160 160 161 162 168 173 173 168 163 172 188 187 188 197 196 192 191 202 211 214 215 215 207 200 199 194 195 202 206 214 214 208 219 237 237 239
138 141 143 144 151 156 163 168 164 166 173 172 170 171 174 171 182 183 177 187 196 195 197 199 199 216 220 216 210 209 215 222 220 218 221 224 227 224 228 228 227 232 236 241